This demonstration page uses our WeatherBlox Daily Observations layout. Learn more.

Left ArrowRight Arrow

Hourly Observations for June 23, 2021

Temp ( °F °C ) Dew Point ( °F °C ) Humidity (%) Winds ( mph kmh ) Pressure ( in mb ) Visibility ( mi km ) Precip ( " mm )
12:56 am 00:56 Clear 73 22.8 54 12.2 51 51 S 16 26 29.73 1007 10 16 0.00 0.00
1:56 am 01:56 Clear 70 21.1 53 11.7 55 55 S 14 22 29.74 1007 10 16 0.00 0.00
2:56 am 02:56 Clear 68 20 53 11.7 59 59 S 14 22 29.73 1007 10 16 0.00 0.00
3:56 am 03:56 Clear 67 19.4 53 11.7 61 61 S 15 24 29.73 1007 10 16 0.00 0.00
4:56 am 04:56 Clear 65 18.3 53 11.7 66 66 S 12 19 29.73 1007 10 16 0.00 0.00
5:56 am 05:56 Clear 63 17.2 54 12.2 73 73 S 13 20 29.74 1007 10 16 0.00 0.00
6:56 am 06:56 Sunny 64 17.8 55 12.8 73 73 S 10 17 29.74 1007 10 16 0.00 0.00
7:56 am 07:56 Sunny 67 19.4 56 13.3 68 68 S 16 26 29.74 1007 10 16 0.00 0.00
8:56 am 08:56 Sunny 71 21.7 60 15.6 68 68 S 16 26 29.75 1007 10 16 0.00 0.00
9:56 am 09:56 Sunny 75 23.9 63 17.2 66 66 S 13 20 29.74 1007 10 16 0.00 0.00
10:56 am 10:56 Sunny 79 26.1 66 18.9 65 65 S 15 24 29.74 1007 10 16 0.00 0.00
11:56 am 11:56 Sunny 82 27.8 67 19.4 60 60 S 16 26 29.73 1007 10 16 0.00 0.00
12:56 pm 12:56 Sunny 85 29.4 68 20 57 57 S 16 26 29.72 1007 10 16 0.00 0.00
1:56 pm 13:56 Sunny 88 31.1 69 20.6 54 54 S 21 33 29.72 1007 10 16 0.00 0.00
2:56 pm 14:56 Sunny 90 32.2 70 21.1 52 52 S 16 26 29.71 1006 10 16 0.00 0.00
3:56 pm 15:56 Sunny 92 33.3 70 21.1 49 49 S 18 30 29.70 1006 10 16 0.00 0.00
4:56 pm 16:56 Sunny 92 33.3 70 21.1 49 49 S 17 28 29.70 1006 10 16 0.00 0.00
5:56 pm 17:56 Sunny 90 32.2 71 21.7 54 54 S 16 26 29.69 1005 10 16 0.00 0.00
6:56 pm 18:56 Sunny 89 31.7 71 21.7 55 55 S 14 22 29.66 1005 10 16 0.00 0.00
7:56 pm 19:56 Sunny 88 31.1 72 22.2 59 59 SSE 12 19 29.67 1005 10 16 0.00 0.00
8:56 pm 20:56 Sunny 83 28.3 73 22.8 72 72 SE 9 15 29.67 1005 10 16 0.00 0.00
9:56 pm 21:56 Clear 83 28.3 73 22.8 72 72 SSE 12 19 29.66 1005 10 16 0.00 0.00
10:56 pm 22:56 Clear 80 26.7 73 22.8 79 79 SE 9 15 29.67 1005 10 16 0.00 0.00
11:56 pm 23:56 Clear 80 26.7 71 21.7 74 74 SSE 13 20 29.64 1004 10 16 0.00 0.00

Powered by AerisWeather